Weather reports worldwide

Advertisment
St-Girons, France (7627): temperature & dewpoint: 14.01.2021 14:00:00 - 20.01.2021 14:00:00 (CET)St-Girons, France (7627): temperature 5cm: 14.01.2021 14:00:00 - 20.01.2021 14:00:00 (CET)St-Girons, France (7627): temperature -20cm & temperature -100cm: 14.01.2021 14:00:00 - 20.01.2021 14:00:00 (CET)St-Girons, France (7627): wind speed & gusts: 14.01.2021 14:00:00 - 20.01.2021 14:00:00 (CET)St-Girons, France (7627): wind direction: 14.01.2021 14:00:00 - 20.01.2021 14:00:00 (CET)St-Girons, France (7627): reduced air pressure: 14.01.2021 14:00:00 - 20.01.2021 14:00:00 (CET)St-Girons, France (7627): visibility: 14.01.2021 14:00:00 - 20.01.2021 14:00:00 (CET)St-Girons, France (7627): sunshine duration: 14.01.2021 14:00:00 - 20.01.2021 14:00:00 (CET)St-Girons, France (7627): precipitation: 14.01.2021 14:00:00 - 20.01.2021 14:00:00 (CET)
Date & Time tt [°C] td [°C] tt 5cm [°C] tt -20cm [°C] tt -100cm [°C] ff [km/h] ff [kn] fx [km/h] fx [kn] dd ppp [hPa] vv [km] sd [min] rr [mm]
20.01.2021 14:00:00 17,5 -3,9 17,2 5,9 8,2 19 10 63 34 SSE 1002,3 20 60 0,0
20.01.2021 13:00:00 17,1 -8,2 3,7 5,9 8,2 42 23 64 35 S 1002,4 20 3 0,0
20.01.2021 12:00:00 3,2 0,3 3,5 6,0 8,2 7 4 12 6 ENE 1006,5 20 0 0,0
20.01.2021 11:00:00 3,4 0,6 3,0 6,0 8,2 2 1 15 8 SE 1007,7 20 0 0,0
20.01.2021 10:00:00 1,2 -1,2 -0,4 6,0 8,2 0 0 8 4 N 1008,3 20 21 0,0
20.01.2021 09:00:00 0,0 -2,5 -1,9 6,0 8,2 2 1 9 5 S 1008,5 19 7 0,0
20.01.2021 08:00:00 1,1 -3,0 -1,4 6,1 8,2 2 1 7 4 N 1008,6 20 0 0,0
20.01.2021 07:00:00 1,0 -3,3 -2,1 6,1 8,2 2 1 21 12 NE 1009,6 20 0 0,0
20.01.2021 06:00:00 1,8 -4,1 -2,8 6,1 8,2 3 2 8 4 SSW 1010,2 20 0 0,0
20.01.2021 05:00:00 1,5 -4,0 -1,7 6,1 8,2 2 1 18 10 NW 1010,9 20 0 0,0
20.01.2021 04:00:00 3,8 -3,7 -0,7 6,2 8,2 9 5 18 10 SE 1011,7 20 0 0,0
20.01.2021 03:00:00 4,7 -4,1 -1,6 6,2 8,2 13 7 22 12 SE 1012,7 20 0 0,0
20.01.2021 02:00:00 3,9 -3,9 -0,8 6,2 8,2 6 4 18 10 ESE 1013,6 20 0 0,0
20.01.2021 01:00:00 4,6 -4,2 -1,5 6,3 8,2 6 3 26 14 ESE 1014,3 20 0 0,0
20.01.2021 00:00:00 1,7 -3,4 -1,4 6,3 8,2 5 3 23 12 WSW 1015,9 20 0 0,0
19.01.2021 23:00:00 5,5 -2,8 1,2 6,3 8,2 19 11 24 13 SSE 1015,9 20 0 0,0
19.01.2021 22:00:00 4,9 -1,8 -1,0 6,3 8,2 10 5 19 10 SE 1016,9 20 0 0,0
19.01.2021 21:00:00 4,7 -1,3 -2,2 6,2 8,2 10 5 19 10 SE 1017,5 20 0 0,0
19.01.2021 20:00:00 4,1 -0,7 -1,0 6,2 8,2 2 1 10 5 SE 1018,3 20 0 0,0
19.01.2021 19:00:00 5,8 -0,7 1,0 6,2 8,2 3 2 24 13 SSW 1018,0 20 0 0,0
19.01.2021 18:00:00 8,3 0,3 4,4 6,1 8,2 11 6 16 9 SE 1017,5 20 5 0,0
19.01.2021 17:00:00 14,7 0,9 14,8 6,0 8,2 4 2 13 7 SSE 1016,6 20 60 0,0
19.01.2021 16:00:00 16,3 0,0 19,9 6,0 8,2 8 4 12 6 SE 1016,8 20 60 0,0
19.01.2021 15:00:00 16,6 -1,1 20,2 6,0 8,2 7 4 14 8 SE 1017,1 20 60 0,0
19.01.2021 14:00:00 15,2 2,0 18,2 6,0 8,2 9 5 20 11 SSE 1018,5 20 60 0,0
19.01.2021 13:00:00 13,0 0,7 15,7 6,0 8,2 9 5 19 10 SE 1020,0 20 60 0,0
19.01.2021 12:00:00 10,8 0,5 12,8 6,1 8,2 10 6 20 11 SE 1021,6 20 60 0,0
19.01.2021 11:00:00 8,1 0,3 6,9 6,2 8,2 12 6 21 12 SE 1022,6 20 60 0,0
19.01.2021 10:00:00 3,0 0,2 -4,0 6,2 8,2 2 1 7 4 SSE 1023,8 20 57 0,0
19.01.2021 09:00:00 -2,0 -3,4 -5,7 6,3 8,2 2 1 10 6 W 1024,9 20 4 0,0
19.01.2021 08:00:00 -2,3 -3,9 -5,7 6,3 8,2 0 0 13 7 N 1025,3 20 0 0,0
19.01.2021 07:00:00 -2,0 -3,3 -5,8 6,4 8,2 3 1 10 6 WSW 1025,5 20 0 0,0
19.01.2021 06:00:00 -2,1 -3,1 -5,8 6,4 8,2 3 2 9 5 WSW 1025,8 20 0 0,0
19.01.2021 05:00:00 -1,6 -3,3 -5,3 6,5 8,2 5 3 13 7 S 1026,0 20 0 0,0
19.01.2021 04:00:00 -0,6 -4,1 -3,9 6,5 8,2 6 3 21 12 SSE 1026,4 20 0 0,0
19.01.2021 03:00:00 -1,1 -3,3 -5,0 6,6 8,2 7 4 13 7 S 1027,2 20 0 0,0
19.01.2021 02:00:00 -0,6 -2,7 -5,1 6,6 8,2 5 3 10 6 SSE 1027,1 20 0 0,0
19.01.2021 01:00:00 -0,4 -2,1 -4,3 6,7 8,2 5 3 14 7 ESE 1027,7 20 0 0,0
19.01.2021 00:00:00 -1,4 -2,0 -4,7 6,7 8,2 2 1 12 7 S 1028,4 20 0 0,0
18.01.2021 23:00:00 -1,0 -2,1 -3,5 6,7 8,2 6 4 15 8 S 1028,6 20 0 0,0
18.01.2021 22:00:00 0,1 -1,3 -3,7 6,7 8,2 5 3 13 7 S 1028,6 20 0 0,0
18.01.2021 21:00:00 -0,4 -1,8 -3,2 6,7 8,2 5 3 15 8 SSW 1029,0 20 0 0,0
18.01.2021 20:00:00 0,7 -0,8 -3,0 6,7 8,2 8 4 11 6 SSE 1029,4 20 0 0,0
18.01.2021 19:00:00 1,7 0,5 -2,4 6,6 8,2 0 0 7 4 N 1029,5 20 0 0,0
18.01.2021 18:00:00 3,0 0,6 -0,1 6,6 8,2 4 2 7 4 WSW 1028,8 20 4 0,0
18.01.2021 17:00:00 8,6 2,2 10,1 6,6 8,2 2 1 7 4 SW 1027,5 20 60 0,0
18.01.2021 16:00:00 9,2 1,8 14,3 6,5 8,2 4 2 8 4 SSE 1027,4 20 60 0,0
18.01.2021 15:00:00 9,7 2,3 16,8 6,5 8,2 0 0 10 5 N 1027,7 20 60 0,0
18.01.2021 14:00:00 8,6 1,7 16,6 6,5 8,2 0 0 17 9 N 1028,5 20 60 0,0
18.01.2021 13:00:00 7,7 1,3 15,9 6,5 8,2 5 3 11 6 ESE 1029,4 20 60 0,0
18.01.2021 12:00:00 6,1 2,0 11,9 6,5 8,2 7 4 13 7 E 1030,7 20 60 0,0
18.01.2021 11:00:00 5,2 2,0 5,5 6,6 8,2 4 2 11 6 SE 1031,2 20 60 0,0
18.01.2021 10:00:00 1,5 1,5 -3,7 6,6 8,2 0 0 6 3 N 1031,6 20 47 0,0
18.01.2021 09:00:00 -1,2 -1,5 -4,0 6,6 8,2 0 0 6 4 N 1031,5 0,7 0 0,0
18.01.2021 08:00:00 -1,0 -1,4 -3,9 6,6 8,2 2 1 8 5 W 1031,5 0,6 0 0,0
18.01.2021 07:00:00 0,9 0,6 -1,9 6,6 8,2 0 0 9 5 N 1031,3 0,1 0 0,0
18.01.2021 06:00:00 2,8 2,5 0,0 6,6 8,2 2 1 7 4 SSE 1030,8 7 0 0,0
18.01.2021 05:00:00 3,3 3,0 2,2 6,6 8,2 3 1 4 2 S 1030,9 1,5 0 0,0
18.01.2021 04:00:00 3,5 3,2 2,8 6,6 8,2 0 0 4 2 N 1031,0 12 0 0,0
18.01.2021 03:00:00 3,7 3,3 2,9 6,6 8,2 0 0 5 3 N 1030,8 4,0 0 0,0
18.01.2021 02:00:00 4,0 3,7 3,4 6,6 8,2 3 2 5 3 SSE 1030,7 17 0 0,0
18.01.2021 01:00:00 4,3 4,0 3,6 6,6 8,2 3 2 6 4 S 1031,3 11 0 0,0
18.01.2021 00:00:00 4,4 4,1 4,1 6,6 8,2 5 3 7 4 S 1031,5 16 0 0,0
17.01.2021 23:00:00 4,7 4,3 4,5 6,6 8,2 0 0 3 1 N 1031,6 3,7 0 0,0
17.01.2021 22:00:00 5,1 4,8 4,9 6,6 8,2 0 0 6 3 N 1031,4 2,1 0 0,0
17.01.2021 21:00:00 5,1 4,8 4,9 6,5 8,2 2 1 11 6 WNW 1031,3 12 0 0,2
17.01.2021 20:00:00 5,4 5,1 5,3 6,5 8,2 0 0 13 7 N 1031,1 1,6 0 0,4
17.01.2021 19:00:00 5,7 5,4 5,4 6,5 8,2 8 5 16 9 WNW 1031,0 3,3 0 0,0
17.01.2021 18:00:00 5,7 5,3 5,5 6,4 8,2 12 7 27 14 NW 1030,1 10 0 1,3
17.01.2021 17:00:00 6,8 6,4 6,8 6,4 8,2 14 8 24 13 NNW 1028,6 3,4 0 1,0
17.01.2021 16:00:00 8,0 7,6 8,0 6,3 8,2 16 9 36 19 NNW 1027,4 8 0 0,4
17.01.2021 15:00:00 9,3 8,8 9,1 6,3 8,2 16 9 38 21 WNW 1026,7 4,2 0 1,4
17.01.2021 14:00:00 9,7 8,9 9,5 6,3 8,2 22 12 38 21 WNW 1026,5 9 0 1,2
17.01.2021 13:00:00 10,0 8,8 9,3 6,2 8,2 16 9 32 18 WNW 1026,6 19 0 0,6
17.01.2021 12:00:00 10,3 7,9 9,1 6,3 8,2 13 7 37 20 WNW 1026,8 17 0 0,2
17.01.2021 11:00:00 11,1 6,4 9,2 6,2 8,2 14 8 46 25 NW 1026,4 20 0 0,0
17.01.2021 10:00:00 10,9 6,0 8,6 6,2 8,2 18 10 27 14 NW 1026,2 20 0 0,0
17.01.2021 09:00:00 10,1 4,9 5,5 6,2 8,1 11 6 30 16 NW 1026,2 20 0 0,0
17.01.2021 08:00:00 7,4 1,9 4,7 6,2 8,2 5 3 14 7 N 1026,5 20 0 0,0
17.01.2021 07:00:00 5,7 1,0 3,5 6,3 8,2 0 0 13 7 N 1027,0 20 0 0,0
17.01.2021 06:00:00 4,3 1,5 3,3 6,3 8,2 2 1 13 7 SSE 1027,1 20 0 0,0
17.01.2021 05:00:00 4,7 0,8 3,6 6,3 8,2 8 4 18 10 ESE 1026,8 20 0 0,0
17.01.2021 04:00:00 4,3 1,5 2,4 6,3 8,2 11 6 14 8 S 1027,8 20 0 0,0
17.01.2021 03:00:00 3,9 0,9 2,0 6,3 8,2 6 3 15 8 SSE 1028,1 20 0 0,0
17.01.2021 02:00:00 3,7 2,1 2,4 6,3 8,1 5 3 8 5 S 1028,2 20 0 0,0
17.01.2021 01:00:00 3,4 1,9 1,7 6,2 8,2 4 2 11 6 NNE 1028,9 20 0 0,0
17.01.2021 00:00:00 2,7 1,7 1,2 6,3 8,2 0 0 6 3 N 1029,1 20 0 0,0
16.01.2021 23:00:00 2,7 1,8 0,6 6,3 8,2 0 0 4 2 N 1029,4 20 0 0,0
16.01.2021 22:00:00 3,8 2,0 2,0 6,3 8,1 0 0 10 6 N 1029,1 20 0 0,0
16.01.2021 21:00:00 3,8 2,5 2,9 6,3 8,2 5 3 9 5 S 1029,1 20 0 0,0
16.01.2021 20:00:00 4,1 2,4 3,4 6,2 8,2 0 0 5 3 N 1029,5 20 0 0,0
16.01.2021 19:00:00 4,4 2,4 3,6 6,2 8,2 0 0 6 3 N 1029,1 20 0 0,0
16.01.2021 18:00:00 5,0 2,2 4,0 6,1 8,2 2 1 10 5 SSW 1029,4 20 0 0,0
16.01.2021 17:00:00 5,7 1,8 6,2 6,1 8,1 3 2 6 4 SW 1028,9 20 0 0,0
16.01.2021 16:00:00 5,8 0,3 6,8 6,1 8,2 2 1 12 7 WSW 1028,9 20 0 0,0
16.01.2021 15:00:00 5,8 0,5 7,4 6,1 8,2 10 5 16 9 NNW 1029,5 20 0 0,0
16.01.2021 14:00:00 6,0 1,1 9,0 6,1 8,2 5 3 10 5 NNW 1029,3 20 0 0,0
16.01.2021 13:00:00 6,1 0,4 10,6 6,2 8,2 0 0 9 5 N 1029,8 20 22 0,0
16.01.2021 12:00:00 6,0 1,5 5,2 6,2 8,2 5 3 14 8 ESE 1030,7 20 45 0,0
16.01.2021 11:00:00 3,6 0,8 2,0 6,2 8,1 6 4 13 7 SSE 1031,7 20 45 0,0
16.01.2021 10:00:00 0,0 -0,1 -3,7 6,3 8,2 4 2 6 3 WNW 1032,1 11 41 0,0
16.01.2021 09:00:00 -2,1 -2,4 -5,4 6,3 8,2 0 0 0 0 N 1032,1 3,7 6 0,0
16.01.2021 08:00:00 -0,9 -1,0 -5,0 6,3 8,2 0 0 4 2 N 1031,7 20 0 0,0
16.01.2021 07:00:00 -1,0 -1,4 -4,8 6,2 8,2 0 0 5 3 N 1031,5 0,4 0 0,0
16.01.2021 06:00:00 0,0 -0,4 -3,3 6,3 8,1 0 0 6 3 N 1031,7 0,6 0 0,0
16.01.2021 05:00:00 1,4 0,7 -0,9 6,3 8,2 0 0 11 6 N 1031,1 11 0 0,0
16.01.2021 04:00:00 2,8 1,8 1,6 6,4 8,2 4 2 9 5 W 1031,0 20 0 0,0
16.01.2021 03:00:00 2,7 1,8 2,0 6,4 8,2 6 3 22 12 WNW 1031,0 20 0 0,4
16.01.2021 02:00:00 2,8 1,8 1,5 6,4 8,2 10 6 27 14 W 1031,0 9 0 0,8
16.01.2021 01:00:00 2,8 2,1 2,0 6,4 8,2 9 5 22 12 W 1031,4 10 0 2,0
16.01.2021 00:00:00 2,8 2,1 2,4 6,4 8,2 14 8 25 14 WNW 1031,4 10 0 1,4
15.01.2021 23:00:00 4,4 2,3 3,5 6,4 8,2 9 5 26 14 N 1030,5 20 0 0,0
15.01.2021 22:00:00 4,8 2,5 3,6 6,4 8,2 17 9 42 23 WNW 1029,9 20 0 0,0
15.01.2021 21:00:00 4,7 3,0 3,6 6,4 8,2 8 5 29 16 WNW 1029,6 20 0 0,2
15.01.2021 20:00:00 5,0 2,9 3,4 6,3 8,2 12 7 38 20 WNW 1029,5 20 0 1,0
15.01.2021 19:00:00 4,5 2,7 3,7 6,4 8,2 18 10 37 20 NW 1029,5 15 0 0,4
15.01.2021 18:00:00 4,8 3,0 3,8 6,3 8,2 21 11 37 20 W 1029,2 14 0 0,0
15.01.2021 17:00:00 5,5 2,7 4,2 6,3 8,2 13 7 48 26 WNW 1028,6 20 0 0,2
15.01.2021 16:00:00 5,5 3,8 5,1 6,3 8,2 14 8 37 20 W 1028,3 12 0 0,2
15.01.2021 15:00:00 6,0 3,3 5,4 6,2 8,2 21 11 35 19 W 1028,0 20 0 0,0
15.01.2021 14:00:00 5,7 3,7 5,1 6,2 8,2 16 8 36 19 WNW 1028,4 20 0 0,0
15.01.2021 13:00:00 5,5 3,8 5,3 6,2 8,2 15 8 32 17 W 1029,0 11 0 0,4
15.01.2021 12:00:00 5,4 4,4 5,1 6,2 8,2 19 10 35 19 WNW 1029,8 9 0 1,8
15.01.2021 11:00:00 6,3 4,3 5,6 6,2 8,2 24 13 40 21 WNW 1029,6 8 0 0,8
15.01.2021 10:00:00 6,6 4,3 5,6 6,2 8,2 12 7 33 18 WNW 1028,8 20 0 0,0
15.01.2021 09:00:00 6,5 4,2 4,9 6,2 8,2 14 8 36 19 W 1028,1 20 0 0,0
15.01.2021 08:00:00 5,9 4,9 5,1 6,2 8,2 11 6 30 16 WNW 1028,5 15 0 0,2
15.01.2021 07:00:00 5,9 4,7 5,3 6,1 8,2 10 6 24 13 WNW 1028,1 17 0 0,4
15.01.2021 06:00:00 6,3 4,8 5,2 6,1 8,2 13 7 31 17 WNW 1028,0 20 0 0,6
15.01.2021 05:00:00 6,6 4,6 5,1 6,1 8,1 17 9 37 20 W 1027,8 15 0 0,2
15.01.2021 04:00:00 6,5 5,0 5,6 6,1 8,2 14 8 40 21 W 1027,7 20 0 1,0
15.01.2021 03:00:00 6,7 5,6 5,9 6,1 8,2 16 9 41 22 NW 1027,4 20 0 1,0
15.01.2021 02:00:00 7,4 4,9 6,0 6,0 8,2 28 15 48 26 WNW 1027,0 13 0 0,2
15.01.2021 01:00:00 8,1 4,9 - - - 18 10 48 26 WNW 1026,8 20 - -
15.01.2021 00:00:00 8,7 5,6 7,8 6,0 8,2 18 10 53 28 WNW 1026,7 20 0 0,0
14.01.2021 23:00:00 9,2 5,7 8,5 6,0 8,2 21 11 61 33 WNW 1026,4 20 0 0,0
14.01.2021 22:00:00 9,5 6,0 8,4 5,9 8,2 26 14 46 25 W 1025,8 19 0 0,0
14.01.2021 21:00:00 10,1 5,1 5,8 5,9 8,2 19 10 32 18 WNW 1025,2 20 0 0,0
14.01.2021 20:00:00 6,8 3,6 5,8 5,8 8,2 3 2 5 3 SSE 1025,6 20 0 0,0
14.01.2021 19:00:00 7,9 3,0 6,4 5,8 8,2 0 0 14 8 N 1026,0 20 0 0,0
14.01.2021 18:00:00 8,6 2,4 7,4 5,7 8,2 8 4 24 13 W 1026,3 20 0 0,0
14.01.2021 17:00:00 8,6 2,6 8,1 5,7 8,2 21 12 35 19 WNW 1026,8 20 27 0,0
14.01.2021 16:00:00 9,0 2,8 9,9 5,6 8,2 16 8 45 24 WNW 1026,4 20 38 0,0
14.01.2021 15:00:00 9,6 2,9 10,6 5,6 8,2 18 10 42 23 NW 1026,1 20 45 0,0
14.01.2021 14:00:00 10,1 2,9 10,0 5,6 8,2 15 8 38 20 W 1027,0 20 30 0,0

tt = temperature
td = dewpoint
tt 5cm = temperature 5cm
tt -20cm = temperature -20cm
tt -100cm = temperature -100cm
ff = wind speed
fx = gusts
dd = wind direction
ppp = reduced air pressure
vv = visibility
sd = sunshine duration
rr = precipitation

Next stations